Location: Forli
(44.2227°N, 12.0407°E)
Time: 19:04:57
(UTC+01:00)

ISS - Pass Details

Date: 23 February 2026
Orbit: 416 x 427 km, 51.6° (Epoch: 6 March)

Event Time Altitude Azimuth Distance (km) Brightness Sun altitude
Exits shadow 04:16:06 13° 44° (NE) 1,341 -0.5 -29.8°
Drops below altitude 10° 04:16:32 10° 48° (NE) 1,497 -0.2 -29.7°
Sets 04:18:46 0° 59° (ENE) 2,360 1.2 -29.3°
